This demonstration page uses our WeatherBlox Daily Observations layout. Learn more.

Left ArrowRight Arrow

39.01783, -85.05884

Hourly Observations for September 10, 2018

Temp ( °F °C ) Dew Point ( °F °C ) Humidity (%) Winds ( mph kmh ) Pressure ( in mb ) Visibility ( mi km ) Precip ( " mm )
12:52 am 00:52 Cloudy with Mist and Fog 61 16.1 61 16.1 100 100 WNW 6 9 29.84 1011 3 5 N/A
12:54 am 00:54 Cloudy with Mist and Fog 61 16.1 61 16.1 100 100 WNW 6 9 29.85 1011 2 3 N/A
1:09 am 01:09 Cloudy with Mist and Fog 61 16.1 61 16.1 100 100 W 6 9 29.85 1011 2 3 N/A
1:27 am 01:27 Cloudy with Mist and Fog 61 16.1 61 16.1 100 100 W 6 9 29.85 1011 2 3 N/A
1:52 am 01:52 Cloudy with Mist and Fog 61 16.1 60 15.6 97 97 W 7 11 29.84 1011 2 3 N/A
2:40 am 02:40 Cloudy with Mist and Fog 60 15.6 60 15.6 100 100 WNW 10 17 29.85 1011 2 3 N/A
2:52 am 02:52 Cloudy with Mist and Fog 60 15.6 60 15.6 100 100 WNW 8 13 29.84 1011 2 3 N/A
3:52 am 03:52 Cloudy 59 15 59 15 100 100 W 9 15 29.85 1011 2 3 N/A
4:52 am 04:52 Cloudy with Patchy Fog 59 15 59 15 100 100 W 8 13 29.85 1011 2 3 N/A
5:09 am 05:09 Cloudy with Patchy Fog 59 15 59 15 100 100 W 6 9 29.88 1012 2 3 N/A
5:52 am 05:52 Cloudy with Mist and Fog 58 14.4 58 14.4 100 100 W 8 13 29.86 1011 2 3 N/A
6:39 am 06:39 Cloudy with Mist and Fog 58 14.4 58 14.4 100 100 W 8 13 29.88 1012 2 3 N/A
6:52 am 06:52 Cloudy with Mist and Fog 59 15 58 14.4 96 96 W 8 13 29.88 1012 2 3 N/A
7:13 am 07:13 Cloudy with Mist and Fog 59 15 58 14.4 96 96 WSW 7 11 29.91 1013 2 3 N/A
7:35 am 07:35 Cloudy with Mist and Fog 58 14.4 58 14.4 100 100 W 8 13 29.91 1013 6 10 N/A
7:52 am 07:52 Cloudy 58 14.4 57 13.9 97 97 W 9 15 29.91 1013 7 11 N/A
8:35 am 08:35 Cloudy 59 15 58 14.4 96 96 W 7 11 29.94 1014 10 16 N/A
8:52 am 08:52 Cloudy 59 15 57 13.9 93 93 W 10 17 29.92 1013 10 16 N/A
9:38 am 09:38 Cloudy 60 15.6 58 14.4 93 93 W 13 20 29.94 1014 10 16 N/A
9:52 am 09:52 Cloudy 60 15.6 57 13.9 90 90 W 14 22 29.93 1014 10 16 N/A
10:22 am 10:22 Cloudy 60 15.6 57 13.9 90 90 WNW 10 17 29.97 1015 10 16 N/A
10:52 am 10:52 Cloudy 60 15.6 57 13.9 90 90 W 9 15 29.96 1014 10 16 N/A
11:52 am 11:52 Cloudy 61 16.1 57 13.9 87 87 WNW 10 17 29.97 1015 10 16 N/A
12:52 pm 12:52 Cloudy 61 16.1 57 13.9 87 87 W 9 15 29.98 1015 10 16 N/A
1:35 pm 13:35 Cloudy 62 16.7 57 13.9 84 84 W 9 15 30.00 1016 10 16 N/A
1:52 pm 13:52 Cloudy 62 16.7 57 13.9 84 84 W 8 13 29.98 1015 10 16 N/A
2:52 pm 14:52 Cloudy 64 17.8 58 14.4 81 81 W 9 15 29.97 1015 10 16 N/A
3:52 pm 15:52 Cloudy 62 16.7 58 14.4 86 86 W 7 11 29.98 1015 10 16 N/A
4:52 pm 16:52 Cloudy 63 17.2 58 14.4 84 84 W 5 7 29.97 1015 10 16 N/A
5:52 pm 17:52 Cloudy 63 17.2 59 15 87 87 W 5 7 29.98 1015 10 16 N/A
6:52 pm 18:52 Cloudy 63 17.2 59 15 87 87 W 5 7 29.99 1016 10 16 N/A
7:52 pm 19:52 Cloudy 63 17.2 60 15.6 90 90 N N/A 30.01 1016 10 16 N/A
8:27 pm 20:27 Cloudy 62 16.7 60 15.6 93 93 N N/A 30.03 1017 10 16 N/A
8:52 pm 20:52 Cloudy 62 16.7 60 15.6 93 93 N N/A 30.03 1017 10 16 N/A
9:52 pm 21:52 Cloudy 62 16.7 61 16.1 96 96 S 3 6 30.06 1018 10 16 N/A
10:52 pm 22:52 Cloudy 62 16.7 61 16.1 96 96 N N/A 30.07 1018 10 16 N/A
11:52 pm 23:52 Cloudy 62 16.7 60 15.6 93 93 WSW 3 6 30.08 1019 10 16 N/A

Powered by AerisWeather